Location: Budapest
(47.4979°N, 19.0402°E)
Time: 04:48:06
(UTC+02:00)

Envisat - Pass Details

Date: 13 October 2017
Orbit: 764 x 766 km, 98.2° (Epoch: 20 October)

Event Time Altitude Azimuth Distance (km) Brightness Sun altitude
Exits shadow 18:35:54 - 88° (E) 2,447 4.9 -6.9°
Reaches altitude 10° 18:36:37 10° 81° (E) 2,306 4.8 -7.0°
Maximum altitude 18:38:51 13° 54° (NE) 2,104 4.8 -7.4°
Drops below altitude 10° 18:41:06 10° 28° (NNE) 2,312 5.2 -7.8°
Sets 18:44:40 0° 2° (N) 3,244 6.2 -8.4°
